Location: Asheville, NC
(35.6000°N, 82.5500°W)
Time: 17:28:36
(UTC-04:00)

Iridium 28 - Pass Details

Date: 12 January 2018
Orbit: 771 x 775 km, 86.4° (Epoch: 21 July)

Event Time Altitude Azimuth Distance (km) Brightness Sun altitude
Rises 05:44:09 0° 161° (SSE) 3,227 9.1 -23.1°
Reaches altitude 10° 05:46:36 10° 153° (SSE) 2,304 8.4 -22.6°
Maximum altitude 05:51:21 39° 86° (E) 1,152 6.9 -21.6°
Drops below altitude 10° 05:56:08 10° 19° (NNE) 2,320 8.1 -20.7°
Sets 05:58:36 0° 12° (NNE) 3,252 8.7 -20.2°
